Location: Unspecified
(0.0000°N, 0.0000°E)
Time: 11:42:05
(UTC+00:00)

Explorer 11/Cluster Stage 4 - Pass Details

Date: 06 October 2020
Orbit: 467 x 1258 km, 28.8° (Epoch: 28 October)

Event Time Altitude Azimuth Distance (km) Brightness Sun altitude
Rises 17:56:30 0° 255° (WSW) 2,811 11.9 -2.1°
Reaches altitude 10° 17:59:09 10° 266° (W) 1,803 10.6 -2.8°
Maximum altitude 18:02:44 30° 328° (NNW) 908 7.3 -3.7°
Drops below altitude 10° 18:06:00 10° 31° (NNE) 1,622 7.9 -4.5°
Sets 18:08:16 0° 43° (NE) 2,476 8.7 -5.1°
Enters shadow 18:08:25 -1° 44° (NE) 2,538 8.8 -5.1°
